AIST-2 (RS-43)

Last updated on Tue Feb 05 2019 03:04:16 GMT+0000 (Coordinated Universal Time)

1 39133U 13015D 19035.89331299 .00000124 00000-0 21023-4 0 9990 2 39133 64.8735 196.0283 0005597 316.5517 106.9821 15.04675727318224
UTC large
Height (km)
Speed (km/s)
/
Latitude / Longitude
Inclination (degrees)
Orbital Period (minutes)
Azimuth
Elevation
Range (km)
Doppler Factor

Next 0 passes for location: London (51.5072 / 0.1276)

Sorry there are no passes over London.